Overview Statistics Trail Chart Weather Telemetry Raw packets
 

This is the latest recevied weather packets stored in our database for station/object N7ZEF. If no packets are shown the sender has not sent any weather packets the latest 10 day(s).

<< 22 23 24 25 26 27 28 >>
Time Temp. Humidity Pressure Rain* Wind** Luminosity Snow
1777832425 17.78° C 19% 1018.3 hPa 0 mm - - -
1777831824 17.22° C 19% 1018.5 hPa 0 mm - - -
1777831223 17.22° C 18% 1018.5 hPa 0 mm - - -
1777830621 17.22° C 18% 1018.8 hPa 0 mm - - -
1777830020 17.22° C 19% 1019 hPa 0 mm - - -
1777829419 16.67° C 20% 1019 hPa 0 mm - - -
1777828817 16.67° C 20% 1019.3 hPa 0 mm - - -
1777828216 16.67° C 22% 1019.3 hPa 0 mm - - -
1777827614 16.67° C 23% 1019.4 hPa 0 mm - - -
1777827013 16.11° C 22% 1019.4 hPa 0 mm - - -
1777826412 16.11° C 24% 1019.6 hPa 0 mm - - -
1777825825 15.56° C 24% 1019.6 hPa 0 mm - - -
1777825209 15.56° C 25% 1019.7 hPa 0 mm - - -
1777824608 15° C 27% 1019.8 hPa 0 mm - - -
1777824006 15° C 26% 1019.9 hPa 0 mm - - -
1777823405 14.44° C 26% 1019.9 hPa 0 mm - - -
1777822803 13.89° C 27% 1019.8 hPa 0 mm - - -
1777822202 13.89° C 29% 1019.8 hPa 0 mm - - -
1777821601 13.33° C 29% 1019.9 hPa 0 mm - - -
1777820999 13.33° C 29% 1019.9 hPa 0 mm - - -
1777820398 12.78° C 30% 1020.1 hPa 0 mm - - -
1777819797 12.22° C 30% 1020.1 hPa 0 mm - - -
1777819195 12.22° C 31% 1020.2 hPa 0 mm - - -
1777818594 11.67° C 33% 1020.1 hPa 0 mm - - -
1777817992 11.11° C 34% 1020.2 hPa 0 mm - - -

* Rain latest hour (hover to see other rain measurements)
** Current wind speed in m/s (hover to see current wind gust speed)